Regional Weather Roundup
Issued by NWS

Home | Current Version | Previous Version | Graphics & Text | Print | Product List | Glossary On
Versions: 1 2 3 4 5 6 7 8 9 10 11 12 13 14 15 16 17 18 19 20 21 22 23 24 25 26 27 28 29 30 31 32 33 34 35 36 37 38 39 40 41 42 43 44 45 46 47 48 49 50
000
ASUS45 KPSR 211600
RWRAZ

PRELIMINARY ARIZONA REGIONAL HOURLY WEATHER ROUNDUP
NATIONAL WEATHER SERVICE PHOENIX AZ
900 AM MST SUN DEC 21 2014

NOTE: FAIR INDICATES FEW OR NO CLOUDS BELOW 12,000 FEET WITH NO
SIGNIFICANT WEATHER AND/OR OBSTRUCTIONS TO VISIBILITY.

AZZ001>003-036-211700-
NORTHWEST ARIZONA

CITY           SKY/WX    TMP DP  RH WIND       PRES   REMARKS
KINGMAN        CLOUDY    36  33  89 CALM      30.14R
$$

AZZ004>008-015-016-018-211700-
NORTH CENTRAL ARIZONA

CITY           SKY/WX    TMP DP  RH WIND       PRES   REMARKS
GRAND CANYON   PTSUNNY   27  25  92 CALM      30.13F
PRESCOTT       SUNNY     37  27  67 S5        30.15F WCI  33
FLAGSTAFF      NOT AVBL
PAYSON         SUNNY     39  32  75 CALM      30.13F
PAGE           PTSUNNY   37  29  72 CALM      30.10R
$$

AZZ009>014-017-211700-
NORTHEAST ARIZONA

CITY           SKY/WX    TMP DP  RH WIND       PRES   REMARKS
WINSLOW        NOT AVBL
SAINT JOHNS    MOSUNNY   30  26  85 CALM      30.11R
WINDOW ROCK    CLOUDY    32  25  75 CALM      30.12R
$$

AZZ023-211700-
GREATER PHOENIX AREA

CITY           SKY/WX    TMP DP  RH WIND       PRES   REMARKS
PHOENIX        PTSUNNY   50  42  74 E6        30.12R
GLENDALE       PTSUNNY   46  43  87 CALM      30.14R
LUKE AFB       PTSUNNY   46  43  88 N6        30.12R
DEER VALLEY    MOSUNNY   50  39  66 CALM      30.11R
SCOTTSDALE     MOSUNNY   49  40  71 CALM      30.14R
MESA-GATEWAY   MOSUNNY   43  39  87 CALM      30.15R
CHANDLER       PTSUNNY   45  43  93 N6        30.15R
$$

AZZ027-028-211700-
SOUTHWEST MARICOPA COUNTY AND PINAL COUNTY

CITY           SKY/WX    TMP DP  RH WIND       PRES   REMARKS
CASA GRANDE    SUNNY     45  39  81 MISG      30.14R
GILA BEND      FAIR      47  41  78 E2        30.15R
$$

AZZ503-504-507>509-211700-
SOUTHEAST ARIZONA

CITY           SKY/WX    TMP DP  RH WIND       PRES   REMARKS
TUCSON         MOSUNNY   44  35  70 SE6       30.14R
DAVIS-MONTHAN  MOSUNNY   44  35  72 SE5       30.11R
RYAN FIELD       N/A     43  41  93 CALM      30.14R
NOGALES        MOSUNNY   42  31  64 CALM      30.12F
SIERRA VISTA   PTSUNNY   48  30  49 SE5       30.12F
SAFFORD        PTSUNNY   39  35  86 E7        30.10S WCI  34
$$

AZZ020-021-025-026-031-211700-
SOUTHWEST ARIZONA

CITY           SKY/WX    TMP DP  RH WIND       PRES   REMARKS
YUMA           NOT AVBL
$$

CAZ031-033-041-043-047-048-061-211700-
SOUTHERN CALIFORNIA

CITY           SKY/WX    TMP DP  RH WIND       PRES   REMARKS
DOWNTOWN L.A.  PTSUNNY   53  47  79 CALM      30.13S HAZE
L.A. AIRPORT   CLOUDY    53  47  79 VRB5      30.14R HAZE
SAN DIEGO      PTSUNNY   57  49  74 CALM      30.15S
BURBANK        PTSUNNY   51  46  83 CALM      30.14R
ONTARIO        PTSUNNY   48  45  89 N3        30.15R FOG
RIVERSIDE      MOSUNNY   47  45  93 CALM      30.15R FOG
PALM SPRINGS   MOSUNNY   51  44  77 CALM      30.15R
EL CENTRO NAS  SUNNY     49  43  80 W5        30.12S
IMPERIAL       SUNNY     49  43  80 CALM      30.12S
BLYTHE         CLOUDY    48  43  82 NE5       30.14R
$$

NVZ020-UTZ003-211700-
SOUTHERN NEVADA-UTAH

CITY           SKY/WX    TMP DP  RH WIND       PRES   REMARKS
LAS VEGAS      NOT AVBL
SALT LAKE CITY LGT RAIN  39  35  86 S20G26    29.97F WCI  29
$$

NMZ009-TXZ055-211700-
NEW MEXICO-WEST TEXAS

CITY           SKY/WX    TMP DP  RH WIND       PRES   REMARKS
ALBUQUERQUE    PTSUNNY   36  28  73 N3        30.06R
EL PASO        MOSUNNY   46  30  53 SE9       30.06F
$$


........................KEY........................
SKY/WX - SKY CONDITION/WEATHER
TMP    - TEMPERATURE IN FAHRENHEIT
DP     - DEW POINT IN FAHRENHEIT
RH     - RELATIVE HUMIDITY IN PERCENT
WIND   - DIRECTION AND SPEED IN MILES PER HOUR (MPH)
VRB    - VARIABLE WIND DIRECTION
PRES   - MEAN SEA LEVEL PRESSURE IN INCHES OF MERCURY
         F - FALLING PRESSURE   R - RISING PRESSURE
         S - STEADY PRESSURE
VSB    - VISIBILITY IN MILES
HX     - HEAT INDEX IN FAHRENHEIT
WCI    - WIND CHILL INDEX IN FAHRENHEIT
TC     - TEMPERATURE IN CELSIUS WHICH IS ALSO KNOWN AS
         TEMPERATURE IN CENTIGRADE
AFB    - AIR FORCE BASE
         LUKE AFB IS LUKE AIR FORCE BASE
         DAVIS-MONTHAN IS DAVIS-MONTHAN AIR FORCE BASE
NAS    - NAVAL AIR STATION
         EL CENTRO NAS IS EL CENTRO NAVAL AIR STATION
N/A    - NOT AVAILABLE


USA.gov is the U.S. government's official web portal to all federal, state and local government web resources and services.